Wind_Speed
20 19 20 21 19 17 17 18 21 22 22 21 19 17 15 18 19 21 26 27 14 14 16 9 15 20 18 10 11 11 8 15 19 18 11 7 9 4 2 1 3 4 2 4 7
22 22 22 22 22 23 23 22 21 20 20 21 20 18 13 17 20 27 26 22 21 18 20 14 13 20 13 12 10 12 14 16 5 7 13 8 3 1 2 2 3 5 6 8 9
25 24 23 22 22 21 21 22 22 22 21 19 21 18 15 14 17 6 1 7 3 18 26 19 14 16 17 11 12 11 17 10 8 10 9 9 11 2 2 2 3 6 10 10 10
27 28 27 27 25 23 22 22 21 21 23 21 19 19 17 10 7 17 8 10 5 11 24 25 17 13 12 14 13 10 16 15 12 13 12 5 4 10 7 5 4 9 11 11 12
27 27 26 25 25 25 25 24 23 20 20 21 20 17 17 12 23 11 16 17 12 7 21 22 22 18 16 16 15 17 7 18 16 11 11 8 12 6 5 10 9 13 12 12 13
26 26 27 27 27 26 25 25 23 21 21 20 19 18 18 19 31 25 26 26 23 8 12 19 14 18 16 10 22 18 18 12 21 13 10 12 7 4 10 9 10 16 14 13 15
27 27 27 28 28 29 28 26 25 26 24 20 17 14 21 34 18 7 13 17 8 7 10 19 10 18 10 8 10 9 15 18 11 22 12 7 12 11 9 13 12 13 14 13 13
30 29 30 31 30 30 30 30 30 31 26 23 17 14 20 16 29 33 31 31 28 11 10 19 12 11 7 9 11 13 8 12 18 12 10 18 20 15 15 12 14 13 12 14 14
32 32 33 32 32 29 30 30 31 34 28 22 16 11 14 12 10 8 18 27 19 21 12 6 7 10 6 13 9 18 15 17 8 24 7 16 9 13 21 21 16 14 14 13 12
33 34 33 31 32 28 29 31 29 9 6 8 10 8 14 10 3 6 6 19 15 19 12 8 9 10 12 17 21 17 20 16 14 9 24 17 9 8 20 25 20 16 14 12 13
36 34 31 32 29 25 25 25 6 2 3 8 11 8 3 11 3 2 3 21 12 20 14 17 11 22 24 17 6 13 18 13 17 9 17 18 15 10 16 17 20 16 16 17 18
37 30 32 30 21 17 17 11 5 8 10 16 25 24 22 9 3 10 11 7 12 16 17 10 21 17 14 16 9 13 17 15 9 13 10 16 18 17 14 14 19 21 21 21 21
35 32 32 24 15 15 17 9 7 7 5 11 14 17 23 18 22 22 15 8 11 17 23 21 11 16 18 19 16 7 16 14 13 15 4 12 11 18 15 14 13 20 19 20 21
34 34 26 18 13 17 9 8 3 4 3 4 5 5 9 9 8 27 25 17 8 20 21 16 12 22 20 22 20 9 7 13 13 17 7 8 6 9 14 14 14 18 22 24 24
36 30 16 14 13 12 12 6 5 0 5 6 6 7 6 8 8 8 17 21 14 10 16 19 23 22 23 25 22 12 10 7 12 13 8 9 4 4 5 12 14 18 26 29 27
39 21 13 16 14 15 5 3 3 2 4 3 7 8 7 11 5 4 21 13 8 11 20 17 22 17 12 18 21 11 11 5 6 6 8 11 9 6 8 11 10 15 22 26 27
36 10 17 16 14 16 5 3 2 3 7 3 3 3 11 9 10 7 13 16 11 10 18 17 22 16 18 20 17 17 16 7 7 7 4 10 8 3 8 7 9 8 16 20 21
22 7 24 19 15 16 4 1 5 5 7 6 6 15 8 4 9 17 10 15 20 10 20 18 10 21 21 26 17 24 22 7 8 8 8 7 8 3 6 4 7 12 17 18 21
15 5 22 24 18 12 2 2 4 3 5 6 10 4 3 1 3 4 12 21 19 13 16 13 10 23 26 22 20 19 17 5 7 5 9 5 2 4 7 7 7 12 8 7 13
12 1 20 27 19 1 1 4 4 5 4 3 4 3 4 4 3 5 10 18 14 16 12 11 15 19 21 18 18 20 14 6 3 9 8 6 6 6 4 7 11 9 6 7 6
10 2 17 25 14 3 3 5 8 13 8 3 3 4 4 2 5 4 12 15 12 17 14 7 14 14 21 16 24 18 14 2 5 1 4 7 4 1 3 8 10 3 10 13 15
10 1 13 23 4 4 5 15 13 12 10 1 4 5 1 5 2 3 4 5 11 8 9 3 11 19 24 7 14 18 16 4 4 4 3 3 4 2 6 7 2 10 16 22 24
13 6 9 24 5 9 8 9 11 15 12 2 2 4 4 2 0 4 1 9 29 14 3 8 8 12 13 8 15 17 18 9 6 2 2 3 4 1 1 4 9 15 20 29 31
8 5 7 10 9 11 10 7 17 19 7 12 5 3 3 2 1 3 2 10 23 9 9 9 7 16 9 17 17 14 22 16 10 3 5 3 8 6 5 9 12 18 23 30 29
13 4 7 7 9 14 12 9 16 11 7 13 6 15 3 3 2 1 16 10 5 7 3 3 9 8 9 17 19 12 22 14 11 9 8 7 8 8 7 11 18 22 25 26 27
8 8 9 10 16 13 12 7 14 20 7 11 13 17 8 3 7 6 19 7 5 10 13 1 5 7 11 20 21 13 18 20 15 9 4 13 7 6 8 16 22 24 27 26 26
18 17 6 11 10 10 11 12 13 20 10 14 17 7 5 7 7 3 2 3 6 5 3 2 5 9 7 15 17 11 4 9 9 12 8 8 7 13 13 15 22 25 28 31 32
Wind_Direction
328 319 310 305 302 299 299 300 305 310 311 313 313 307 300 304 296 282 266 261 256 235 247 224 205 197 183 190 181 183 215 220 216 213 210 184 189 178 187 79 73 19 43 135 167
336 329 321 315 307 299 293 291 290 292 296 305 309 314 301 300 296 285 285 264 243 226 226 213 200 188 182 191 188 195 218 217 222 198 211 195 207 110 193 63 117 97 105 135 154
343 339 333 327 317 313 309 298 287 285 286 289 297 304 312 304 304 224 13 97 225 224 230 220 192 179 192 181 193 200 224 197 202 192 208 203 219 278 263 234 222 201 158 156 157
343 341 338 335 332 326 319 312 303 290 280 275 274 288 296 290 271 176 155 129 145 242 217 206 195 186 191 193 185 209 219 206 207 204 213 202 200 231 241 233 194 164 157 161 166
341 341 334 330 328 324 320 316 311 304 295 280 269 268 276 236 246 202 231 260 300 14 202 194 192 191 193 196 184 210 187 208 202 184 194 216 231 221 200 156 156 158 154 159 175
344 342 339 334 330 324 320 316 312 304 297 288 282 258 270 246 271 266 242 258 283 265 218 201 208 195 197 195 197 196 206 194 214 207 215 219 228 219 200 170 156 168 168 165 165
343 343 337 333 329 326 323 318 315 309 304 295 287 275 261 245 253 267 255 253 264 215 236 200 203 196 157 167 193 160 189 215 201 213 217 208 234 211 216 179 175 181 181 182 181
344 341 335 332 327 323 320 315 311 307 302 290 285 268 256 266 259 258 257 257 254 222 209 195 190 192 198 140 145 176 178 193 209 176 196 194 238 199 209 184 187 182 179 186 187
344 338 333 328 326 328 323 316 308 306 291 271 254 233 269 268 263 290 241 237 241 214 217 192 210 199 167 172 151 192 202 201 174 202 163 198 227 208 202 204 193 194 193 193 195
343 336 331 332 330 326 319 310 317 322 35 132 179 188 249 236 212 305 290 200 192 198 223 209 193 192 200 189 202 185 194 194 190 168 202 198 217 179 188 192 202 193 200 209 215
342 337 333 333 328 329 327 339 4 311 284 217 210 225 252 201 153 132 126 149 153 177 192 190 186 203 194 201 243 166 185 165 197 150 179 203 199 161 180 195 195 210 214 218 223
343 338 335 329 335 344 334 341 300 290 296 262 249 245 247 238 289 117 124 147 173 186 186 185 213 198 180 189 180 177 171 186 169 178 203 190 206 209 202 204 214 221 223 224 225
344 341 335 332 336 341 340 339 328 296 275 287 238 237 237 242 254 245 222 199 183 177 198 199 197 176 178 181 192 173 181 161 152 168 149 155 196 219 230 234 225 225 224 219 222
346 342 336 342 340 332 333 325 348 330 292 250 209 236 176 211 235 226 203 184 174 194 196 221 203 175 179 188 190 169 188 179 137 154 176 210 197 213 217 209 217 220 222 233 234
346 341 343 337 334 335 323 317 302 64 314 137 150 152 189 180 328 178 189 189 204 172 182 190 182 186 182 185 182 181 166 140 171 171 156 169 205 154 180 220 224 221 222 224 223
346 342 359 348 331 329 285 242 244 218 252 237 155 185 178 203 201 182 178 206 216 189 199 193 185 183 183 176 180 171 151 72 100 155 203 172 199 184 174 205 223 230 230 229 230
349 8 9 359 340 331 260 120 270 240 3 262 251 269 248 202 192 208 163 189 189 174 179 186 176 181 182 158 185 174 162 140 164 186 178 172 188 171 192 225 241 256 240 227 232
358 71 6 4 347 337 209 103 242 224 241 258 274 277 266 221 204 199 197 191 214 217 166 169 182 172 179 169 183 185 177 169 164 178 143 160 200 140 165 229 243 267 272 252 244
6 65 8 1 352 342 164 276 262 274 293 299 297 263 314 40 145 104 167 179 194 202 170 181 161 175 178 176 151 181 198 145 107 101 144 164 163 234 223 245 287 314 295 226 206
12 62 7 359 347 82 291 284 265 219 287 255 286 340 354 54 79 106 151 184 188 205 226 195 134 181 172 178 187 182 152 170 149 152 154 173 161 126 207 316 336 352 21 70 114
15 13 356 359 342 315 345 304 295 306 299 216 304 314 342 66 127 109 176 166 173 210 223 209 151 159 162 184 175 170 192 138 105 2 136 143 162 110 309 308 314 13 98 103 104
3 356 350 0 2 351 336 313 298 313 345 153 291 280 312 354 71 99 143 252 178 215 214 212 157 158 169 189 181 179 187 176 137 152 63 90 127 71 291 302 217 109 103 100 97
343 313 357 24 16 353 329 320 333 329 335 274 243 252 343 342 103 110 198 198 177 199 182 165 154 138 167 133 172 181 179 187 107 132 81 102 146 106 358 117 115 118 112 106 106
6 353 343 24 4 335 328 337 342 336 334 337 349 219 266 246 72 136 243 157 191 227 20 32 168 165 173 167 155 170 170 177 193 159 138 101 145 175 127 130 125 116 118 118 116
19 15 349 322 344 329 345 328 332 346 331 342 336 356 346 331 40 34 130 130 157 217 258 259 163 184 145 138 163 146 174 176 165 156 190 177 164 158 152 147 132 125 127 124 122
23 355 326 296 311 330 355 330 331 333 316 329 340 338 27 38 28 54 125 121 203 252 259 280 130 134 140 147 158 145 167 184 191 177 106 140 146 153 151 141 139 138 136 131 127
1 357 309 315 324 342 348 338 317 335 305 325 325 326 23 3 337 319 9 232 281 244 153 33 146 131 129 151 146 161 159 190 172 190 156 169 164 163 153 156 150 146 144 138 128
Height
1504 1501 1499 1497 1494 1492 1490 1489 1487 1485 1483 1481 1480 1478 1477 1475 1472 1471 1466 1467 1472 1474 1473 1476 1477 1482 1485 1488 1489 1490 1488 1482 1484 1490 1487 1490 1490 1492 1492 1492 1492 1491 1492 1493 1493
1501 1498 1495 1492 1489 1487 1485 1483 1482 1481 1480 1479 1477 1475 1474 1472 1469 1463 1461 1461 1465 1468 1469 1472 1474 1477 1482 1484 1486 1484 1482 1480 1484 1487 1487 1488 1489 1490 1492 1491 1492 1492 1492 1492 1493
1498 1495 1491 1488 1484 1481 1479 1476 1476 1475 1475 1475 1474 1473 1472 1470 1467 1458 1454 1454 1458 1462 1465 1468 1472 1475 1478 1480 1481 1479 1474 1480 1484 1486 1489 1489 1490 1490 1490 1489 1490 1490 1491 1492 1493
1496 1492 1488 1485 1482 1479 1475 1472 1469 1468 1468 1468 1469 1469 1469 1469 1465 1455 1454 1454 1456 1455 1458 1463 1468 1471 1471 1472 1476 1477 1477 1478 1481 1484 1487 1488 1489 1488 1489 1489 1488 1489 1490 1492 1493
1493 1489 1486 1481 1477 1474 1471 1468 1466 1463 1462 1462 1463 1464 1464 1462 1456 1456 1453 1452 1453 1454 1455 1459 1463 1465 1464 1467 1473 1471 1475 1478 1480 1482 1485 1487 1487 1487 1487 1488 1488 1489 1490 1492 1493
1490 1486 1482 1478 1474 1471 1466 1465 1461 1459 1457 1456 1457 1459 1459 1451 1445 1448 1450 1450 1451 1455 1455 1457 1459 1463 1464 1462 1464 1467 1472 1476 1478 1481 1483 1484 1487 1488 1486 1487 1488 1489 1491 1491 1493
1488 1483 1478 1474 1469 1465 1462 1459 1457 1454 1452 1451 1452 1454 1451 1437 1440 1442 1445 1448 1449 1452 1454 1455 1457 1459 1460 1462 1462 1468 1472 1475 1476 1478 1479 1484 1484 1484 1484 1486 1488 1489 1490 1491 1492
1486 1480 1474 1470 1465 1461 1457 1454 1451 1448 1446 1447 1449 1449 1438 1435 1436 1436 1439 1441 1446 1450 1451 1453 1456 1458 1458 1459 1461 1464 1468 1471 1467 1475 1477 1481 1469 1479 1484 1484 1486 1488 1489 1490 1491
1483 1477 1470 1465 1460 1456 1452 1448 1443 1439 1436 1438 1443 1446 1435 1430 1428 1428 1431 1433 1441 1448 1450 1452 1455 1454 1455 1452 1457 1456 1453 1461 1465 1469 1472 1476 1475 1476 1479 1483 1485 1486 1488 1489 1490
1479 1473 1467 1461 1456 1452 1447 1441 1436 1432 1431 1432 1438 1444 1430 1425 1425 1426 1426 1427 1436 1443 1450 1451 1452 1449 1447 1441 1427 1442 1449 1458 1458 1466 1469 1473 1472 1472 1475 1479 1482 1485 1486 1487 1488
1475 1468 1462 1457 1452 1447 1442 1435 1437 1435 1432 1430 1427 1423 1421 1418 1422 1425 1424 1427 1433 1439 1442 1444 1442 1431 1434 1441 1437 1445 1449 1455 1459 1462 1468 1471 1473 1472 1475 1478 1479 1482 1485 1485 1486
1471 1463 1456 1452 1448 1444 1441 1438 1437 1436 1428 1423 1423 1423 1421 1421 1426 1426 1427 1428 1431 1430 1436 1441 1431 1436 1442 1446 1443 1443 1445 1451 1457 1460 1463 1471 1473 1470 1471 1476 1478 1480 1481 1482 1484
1467 1460 1454 1448 1445 1442 1439 1438 1436 1434 1432 1415 1413 1413 1417 1420 1418 1419 1426 1427 1427 1428 1427 1423 1424 1437 1440 1444 1445 1445 1441 1445 1447 1459 1464 1468 1472 1471 1471 1474 1475 1476 1478 1479 1480
1463 1456 1448 1446 1445 1441 1438 1437 1435 1435 1432 1412 1410 1410 1411 1415 1412 1409 1413 1420 1422 1420 1425 1427 1426 1431 1436 1440 1443 1449 1445 1444 1449 1453 1465 1462 1466 1467 1463 1467 1470 1472 1475 1476 1476
1458 1451 1446 1440 1440 1439 1437 1435 1434 1434 1416 1405 1407 1407 1407 1409 1410 1404 1410 1415 1413 1415 1419 1417 1422 1428 1431 1431 1439 1443 1446 1446 1445 1448 1454 1465 1467 1457 1464 1463 1462 1465 1466 1467 1469
1454 1448 1446 1442 1438 1437 1433 1432 1434 1431 1417 1399 1402 1404 1405 1406 1408 1405 1408 1414 1415 1414 1416 1416 1419 1425 1427 1433 1438 1439 1447 1449 1450 1450 1460 1453 1454 1458 1455 1452 1452 1455 1457 1460 1462
1450 1445 1444 1441 1439 1435 1432 1432 1430 1424 1412 1401 1398 1400 1400 1397 1401 1404 1400 1410 1407 1412 1412 1412 1415 1421 1427 1436 1441 1438 1445 1453 1460 1457 1454 1455 1456 1447 1449 1448 1449 1449 1450 1452 1454
1447 1446 1444 1440 1437 1434 1431 1432 1424 1410 1408 1401 1402 1394 1390 1388 1390 1393 1398 1405 1405 1401 1400 1407 1428 1413 1418 1421 1425 1429 1428 1428 1444 1450 1449 1458 1454 1444 1443 1445 1446 1446 1444 1445 1447
1447 1446 1444 1440 1435 1432 1431 1426 1418 1413 1410 1405 1398 1388 1382 1381 1383 1385 1392 1393 1397 1399 1395 1405 1402 1405 1411 1415 1418 1429 1431 1427 1439 1441 1443 1450 1449 1444 1444 1443 1442 1439 1437 1437 1440
1448 1445 1443 1440 1435 1432 1431 1423 1418 1414 1411 1407 1395 1392 1385 1381 1379 1387 1386 1392 1394 1397 1389 1390 1398 1401 1410 1415 1417 1414 1425 1434 1429 1447 1449 1451 1447 1439 1441 1439 1438 1437 1436 1439 1442
1446 1445 1444 1441 1436 1434 1430 1424 1415 1406 1404 1406 1398 1394 1390 1386 1378 1383 1383 1389 1393 1394 1393 1389 1388 1403 1408 1407 1411 1418 1423 1427 1427 1431 1436 1450 1443 1441 1443 1441 1441 1441 1444 1446 1448
1449 1447 1445 1440 1439 1436 1432 1427 1415 1404 1401 1403 1401 1394 1390 1387 1381 1385 1388 1387 1391 1390 1391 1386 1386 1398 1403 1404 1408 1411 1417 1421 1422 1440 1440 1434 1445 1443 1443 1442 1442 1445 1449 1450 1452
1454 1452 1447 1443 1443 1439 1432 1424 1418 1407 1400 1398 1398 1395 1391 1391 1386 1382 1391 1382 1391 1389 1380 1384 1393 1403 1409 1411 1409 1412 1415 1419 1424 1428 1434 1434 1444 1444 1444 1442 1445 1448 1453 1452 1458
1460 1456 1452 1448 1451 1448 1435 1427 1418 1410 1402 1399 1394 1394 1389 1384 1386 1388 1392 1383 1387 1388 1382 1382 1388 1387 1388 1387 1399 1409 1413 1414 1416 1428 1433 1430 1439 1442 1444 1446 1449 1452 1457 1458 1462
1468 1469 1468 1457 1449 1447 1441 1433 1424 1414 1407 1403 1397 1390 1386 1380 1378 1377 1380 1384 1391 1391 1393 1391 1390 1391 1388 1393 1400 1406 1412 1414 1417 1423 1426 1425 1431 1439 1444 1447 1450 1455 1459 1464 1465
1478 1478 1471 1464 1456 1448 1442 1436 1430 1419 1413 1405 1401 1395 1390 1388 1391 1387 1389 1393 1396 1391 1393 1390 1394 1392 1396 1391 1398 1406 1409 1413 1414 1422 1427 1428 1439 1442 1446 1449 1452 1457 1460 1465 1468
1480 1479 1474 1466 1458 1451 1446 1442 1432 1425 1414 1411 1402 1395 1392 1393 1395 1395 1396 1396 1396 1387 1385 1391 1392 1393 1404 1396 1400 1415 1415 1414 1418 1417 1420 1427 1427 1439 1445 1448 1452 1458 1462 1465 1466